| time (UTC) | temp C | wind direction | speed KPH | gust KPH | rain 1hr cm | rain 24hr cm | rain mn cm | humidity % | barometer mb |
| 20260507070037 | 5 | 0.0 | 1.6 | 0.00 | 1.14 | 0.00 | 91 | 1012.4 | |
| 20260507065537 | 5 | 0.0 | 1.6 | 0.00 | 1.17 | 0.00 | 91 | 1012.3 | |
| 20260507065017 | 5 | 0.0 | 1.6 | 0.00 | 1.19 | 0.00 | 91 | 1012.4 | |
| 20260507064517 | 5 | 0.0 | 0.0 | 0.00 | 1.24 | 0.00 | 91 | 1012.3 | |
| 20260507064017 | 5 | 0.0 | 0.0 | 0.00 | 1.24 | 0.00 | 92 | 1012.3 | |
| 20260507063537 | 5 | 0.0 | 1.6 | 0.00 | 1.30 | 0.00 | 91 | 1012.2 | |
| 20260507063037 | 5 | 0.0 | 1.6 | 0.00 | 1.35 | 0.00 | 91 | 1012.1 | |
| 20260507062517 | 5 | 0.0 | 0.0 | 0.00 | 1.37 | 0.00 | 92 | 1012.5 | |
| 20260507062017 | 5 | 0.0 | 0.0 | 0.00 | 1.40 | 0.00 | 92 | 1012.2 | |
| 20260507061517 | 5 | 0.0 | 0.0 | 0.00 | 1.45 | 0.00 | 92 | 1012.2 | |
| 20260507061017 | 5 | 0.0 | 1.6 | 0.00 | 1.47 | 0.00 | 92 | 1012.2 | |
| 20260507060517 | 5 | 0.0 | 1.6 | 0.00 | 1.52 | 0.00 | 92 | 1012.3 | |
| 20260507060017 | 5 | 0.0 | 1.6 | 0.00 | 1.60 | 0.00 | 92 | 1012.5 | |
| 20260507055517 | 5 | 0.0 | 1.6 | 0.00 | 1.63 | 0.00 | 92 | 1012.6 | |
| 20260507055017 | 5 | 0 | 1.6 | 4.8 | 0.00 | 1.65 | 0.00 | 92 | 1012.7 |
| 20260507054517 | 5 | 0 | 1.6 | 3.2 | 0.00 | 1.65 | 0.00 | 92 | 1012.7 |
| 20260507054036 | 5 | 248 | 1.6 | 3.2 | 0.00 | 1.68 | 0.00 | 92 | 1012.7 |
| 20260507053517 | 5 | 248 | 1.6 | 3.2 | 0.00 | 1.68 | 0.00 | 92 | 1012.8 |
| 20260507053017 | 5 | 0.0 | 3.2 | 0.00 | 1.68 | 0.00 | 92 | 1012.8 | |
| 20260507052517 | 5 | 0.0 | 3.2 | 0.00 | 1.70 | 0.00 | 92 | 1012.9 | |
| 20260507052017 | 5 | 248 | 1.6 | 4.8 | 0.00 | 1.70 | 0.00 | 92 | 1012.8 |
| 20260507051517 | 5 | 0.0 | 1.6 | 0.00 | 1.73 | 0.00 | 92 | 1012.9 | |
| 20260507051017 | 5 | 0.0 | 1.6 | 0.00 | 1.75 | 0.00 | 92 | 1012.9 | |
| 20260507050617 | 5 | 315 | 1.6 | 4.8 | 0.00 | 1.78 | 0.00 | 92 | 1013.1 |
| 20260507050016 | 5 | 0.0 | 3.2 | 0.00 | 1.78 | 0.00 | 92 | 1013.1 | |
| 20260507045517 | 5 | 0.0 | 1.6 | 0.00 | 1.80 | 0.00 | 92 | 1013.0 | |
| 20260507045017 | 5 | 0 | 1.6 | 3.2 | 0.00 | 1.83 | 0.00 | 92 | 1013.0 |
| 20260507044517 | 5 | 0 | 1.6 | 4.8 | 0.00 | 1.85 | 0.00 | 92 | 1013.1 |
| 20260507044017 | 5 | 0 | 1.6 | 4.8 | 0.00 | 1.85 | 0.00 | 92 | 1013.0 |
| 20260507043516 | 5 | 293 | 1.6 | 6.4 | 0.00 | 1.85 | 0.00 | 92 | 1013.0 |
| 20260507043017 | 5 | 270 | 1.6 | 6.4 | 0.00 | 1.88 | 0.00 | 92 | 1012.9 |
| 20260507042517 | 5 | 0 | 1.6 | 6.4 | 0.00 | 1.88 | 0.00 | 92 | 1012.9 |
| 20260507042017 | 5 | 0 | 3.2 | 8.0 | 0.00 | 1.91 | 0.00 | 92 | 1012.9 |
| 20260507041537 | 6 | 0 | 1.6 | 8.0 | 0.00 | 1.91 | 0.00 | 92 | 1012.9 |
| 20260507041017 | 6 | 0 | 1.6 | 4.8 | 0.00 | 1.91 | 0.00 | 92 | 1012.8 |
| 20260507040517 | 6 | 0 | 1.6 | 3.2 | 0.00 | 1.91 | 0.00 | 92 | 1012.7 |
| 20260507040016 | 6 | 0 | 3.2 | 6.4 | 0.00 | 1.93 | 1.93 | 92 | 1012.7 |
| 20260507035516 | 6 | 0 | 1.6 | 4.8 | 0.00 | 1.93 | 1.93 | 92 | 1012.8 |
| 20260507035016 | 6 | 0 | 1.6 | 4.8 | 0.00 | 1.93 | 1.93 | 92 | 1012.7 |
| 20260507034516 | 6 | 0 | 3.2 | 4.8 | 0.00 | 1.96 | 1.93 | 92 | 1012.7 |
| 20260507034016 | 6 | 0 | 3.2 | 8.0 | 0.00 | 1.96 | 1.93 | 92 | 1012.6 |
| 20260507033536 | 6 | 0 | 1.6 | 6.4 | 0.00 | 1.98 | 1.93 | 92 | 1012.6 |
| 20260507033036 | 6 | 0.0 | 4.8 | 0.00 | 1.98 | 1.93 | 92 | 1012.7 | |
| 20260507032516 | 6 | 0 | 1.6 | 6.4 | 0.00 | 2.01 | 1.93 | 92 | 1012.8 |
| 20260507032036 | 6 | 0 | 1.6 | 4.8 | 0.00 | 2.03 | 1.93 | 92 | 1012.5 |
| 20260507031516 | 6 | 0 | 3.2 | 6.4 | 0.00 | 2.03 | 1.93 | 92 | 1012.5 |
| 20260507031016 | 6 | 0 | 3.2 | 6.4 | 0.00 | 2.03 | 1.93 | 92 | 1012.5 |
| 20260507030516 | 6 | 0 | 1.6 | 4.8 | 0.00 | 2.03 | 1.93 | 92 | 1012.3 |
| 20260507030035 | 6 | 0 | 3.2 | 6.4 | 0.00 | 2.03 | 1.93 | 92 | 1012.5 |
| 20260507025516 | 6 | 0 | 1.6 | 4.8 | 0.00 | 2.03 | 1.93 | 92 | 1012.4 |
| 20260507025016 | 6 | 0 | 1.6 | 6.4 | 0.00 | 2.03 | 1.93 | 92 | 1012.3 |
| 20260507024518 | 6 | 0 | 1.6 | 3.2 | 0.00 | 2.06 | 1.93 | 92 | 1012.3 |
| 20260507024018 | 6 | 0 | 1.6 | 4.8 | 0.00 | 2.06 | 1.93 | 92 | 1012.3 |
| 20260507023518 | 6 | 0 | 3.2 | 6.4 | 0.00 | 2.06 | 1.93 | 91 | 1012.4 |
| 20260507023018 | 6 | 0 | 1.6 | 6.4 | 0.00 | 2.06 | 1.93 | 92 | 1012.5 |
| 20260507022518 | 6 | 0 | 1.6 | 6.4 | 0.00 | 2.06 | 1.93 | 92 | 1012.4 |
| 20260507022038 | 6 | 0.0 | 1.6 | 0.00 | 2.06 | 1.93 | 91 | 1012.3 | |
| 20260507021518 | 6 | 0 | 1.6 | 6.4 | 0.00 | 2.08 | 1.93 | 91 | 1012.3 |
| 20260507021018 | 6 | 0.0 | 4.8 | 0.00 | 2.08 | 1.93 | 91 | 1012.3 | |
| 20260507020518 | 6 | 0 | 1.6 | 4.8 | 0.00 | 2.08 | 1.93 | 91 | 1012.6 |
| 20260507020017 | 6 | 248 | 1.6 | 4.8 | 0.00 | 2.08 | 1.93 | 91 | 1012.4 |
| 20260507015517 | 6 | 0 | 3.2 | 6.4 | 0.00 | 2.08 | 1.93 | 91 | 1012.5 |
| 20260507015038 | 6 | 0 | 3.2 | 6.4 | 0.00 | 2.11 | 1.93 | 91 | 1012.4 |
| 20260507014518 | 6 | 0 | 3.2 | 4.8 | 0.00 | 2.11 | 1.93 | 91 | 1012.3 |
| 20260507014018 | 6 | 0.0 | 4.8 | 0.00 | 2.13 | 1.93 | 91 | 1012.3 | |
| 20260507013518 | 6 | 0 | 1.6 | 6.4 | 0.00 | 2.13 | 1.93 | 91 | 1012.1 |
| 20260507013018 | 6 | 0 | 1.6 | 4.8 | 0.00 | 2.16 | 1.93 | 91 | 1012.1 |
| 20260507012518 | 6 | 0 | 3.2 | 6.4 | 0.00 | 2.16 | 1.93 | 91 | 1012.3 |
| 20260507012058 | 6 | 0 | 4.8 | 12.9 | 0.00 | 2.18 | 1.93 | 90 | 1012.4 |
| 20260507011518 | 6 | 0 | 3.2 | 16.1 | 0.00 | 2.18 | 1.93 | 91 | 1012.6 |
| 20260507011018 | 6 | 0 | 3.2 | 6.4 | 0.00 | 2.18 | 1.93 | 90 | 1012.5 |
| 20260507010518 | 6 | 0 | 4.8 | 16.1 | 0.00 | 2.18 | 1.93 | 90 | 1012.5 |
| 20260507010017 | 6 | 0 | 4.8 | 14.5 | 0.00 | 2.18 | 1.93 | 90 | 1012.3 |
| 20260507005517 | 6 | 0 | 4.8 | 12.9 | 0.03 | 2.18 | 1.93 | 90 | 1012.2 |
| 20260507005018 | 7 | 0 | 6.4 | 19.3 | 0.05 | 2.18 | 1.93 | 90 | 1012.1 |
| 20260507004518 | 7 | 0 | 4.8 | 12.9 | 0.08 | 2.18 | 1.93 | 90 | 1011.9 |
| 20260507004018 | 7 | 0 | 4.8 | 12.9 | 0.08 | 2.18 | 1.93 | 90 | 1011.9 |
| 20260507003537 | 7 | 0 | 4.8 | 9.7 | 0.08 | 2.21 | 1.93 | 89 | 1011.7 |
| 20260507003037 | 7 | 0.0 | 3.2 | 0.08 | 2.21 | 1.93 | 89 | 1011.3 | |
| 20260507002517 | 7 | 0 | 1.6 | 4.8 | 0.08 | 2.21 | 1.93 | 89 | 1011.1 |
| 20260507002017 | 7 | 315 | 3.2 | 8.0 | 0.08 | 2.21 | 1.93 | 89 | 1011.1 |
| 20260507001517 | 7 | 315 | 4.8 | 8.0 | 0.13 | 2.21 | 1.93 | 89 | 1011.2 |
| 20260507001037 | 7 | 0 | 6.4 | 14.5 | 0.18 | 2.21 | 1.93 | 88 | 1011.1 |
| 20260507000517 | 7 | 0 | 6.4 | 16.1 | 0.23 | 2.24 | 1.93 | 88 | 1011.0 |
| 20260507000017 | 7 | 0 | 11.3 | 20.9 | 0.23 | 2.24 | 1.93 | 88 | 1011.2 |
| 20260506235537 | 8 | 0 | 14.5 | 30.6 | 0.20 | 2.21 | 1.91 | 87 | 1011.0 |
| 20260506235017 | 8 | 0 | 8.0 | 22.5 | 0.18 | 2.21 | 1.88 | 88 | 1010.7 |
| 20260506234517 | 8 | 180 | 3.2 | 8.0 | 0.15 | 2.18 | 1.85 | 87 | 1010.7 |
| 20260506234017 | 9 | 45 | 1.6 | 4.8 | 0.15 | 2.18 | 1.85 | 87 | 1010.7 |
| 20260506233517 | 9 | 0 | 1.6 | 4.8 | 0.15 | 2.21 | 1.85 | 86 | 1010.6 |
| 20260506233057 | 9 | 0 | 1.6 | 6.4 | 0.15 | 2.21 | 1.85 | 86 | 1010.5 |
| 20260506232517 | 9 | 0 | 1.6 | 6.4 | 0.15 | 2.24 | 1.85 | 86 | 1010.7 |
| 20260506232017 | 9 | 0 | 4.8 | 6.4 | 0.15 | 2.24 | 1.85 | 85 | 1010.5 |
| 20260506231517 | 9 | 68 | 1.6 | 4.8 | 0.10 | 2.21 | 1.80 | 85 | 1010.3 |
| 20260506231017 | 9 | 90 | 3.2 | 4.8 | 0.05 | 2.21 | 1.75 | 84 | 1010.2 |
| 20260506230557 | 9 | 90 | 3.2 | 6.4 | 0.00 | 2.16 | 1.70 | 84 | 1010.1 |
| 20260506230037 | 9 | 90 | 1.6 | 4.8 | 0.00 | 2.18 | 1.70 | 84 | 1009.9 |
| 20260506225517 | 9 | 90 | 3.2 | 6.4 | 0.00 | 2.21 | 1.70 | 83 | 1010.0 |
| 20260506225017 | 9 | 90 | 4.8 | 9.7 | 0.00 | 2.24 | 1.70 | 83 | 1010.0 |
| 20260506224517 | 10 | 113 | 4.8 | 8.0 | 0.00 | 2.24 | 1.70 | 83 | 1009.9 |
| 20260506224017 | 10 | 90 | 4.8 | 9.7 | 0.00 | 2.26 | 1.70 | 82 | 1009.8 |
| 20260506223537 | 10 | 90 | 3.2 | 6.4 | 0.00 | 2.26 | 1.70 | 82 | 1009.9 |
| 20260506223017 | 10 | 113 | 4.8 | 11.3 | 0.00 | 2.26 | 1.70 | 82 | 1009.9 |
| 20260506222517 | 10 | 113 | 3.2 | 6.4 | 0.00 | 2.26 | 1.70 | 81 | 1010.0 |
| 20260506222016 | 10 | 90 | 3.2 | 6.4 | 0.00 | 2.26 | 1.70 | 82 | 1009.9 |
| 20260506221536 | 10 | 90 | 4.8 | 6.4 | 0.00 | 2.26 | 1.70 | 82 | 1009.8 |
| 20260506221016 | 10 | 113 | 3.2 | 9.7 | 0.00 | 2.26 | 1.70 | 82 | 1009.9 |
| 20260506220556 | 10 | 90 | 3.2 | 9.7 | 0.00 | 2.26 | 1.70 | 82 | 1009.8 |
| 20260506220016 | 10 | 135 | 3.2 | 4.8 | 0.00 | 2.26 | 1.70 | 81 | 1009.8 |
| 20260506215516 | 10 | 135 | 1.6 | 3.2 | 0.00 | 2.26 | 1.70 | 81 | 1009.8 |
| 20260506215016 | 10 | 135 | 1.6 | 3.2 | 0.00 | 2.26 | 1.70 | 81 | 1009.6 |
| 20260506214516 | 10 | 113 | 3.2 | 4.8 | 0.00 | 2.26 | 1.70 | 81 | 1009.5 |
| 20260506214016 | 10 | 90 | 1.6 | 4.8 | 0.00 | 2.26 | 1.70 | 80 | 1009.5 |
| 20260506213516 | 10 | 90 | 1.6 | 3.2 | 0.00 | 2.26 | 1.70 | 80 | 1009.6 |
| 20260506213016 | 10 | 90 | 1.6 | 3.2 | 0.00 | 2.26 | 1.70 | 80 | 1009.7 |
| 20260506212516 | 10 | 90 | 1.6 | 3.2 | 0.00 | 2.26 | 1.70 | 80 | 1009.7 |
| 20260506212016 | 10 | 113 | 1.6 | 4.8 | 0.00 | 2.26 | 1.70 | 80 | 1009.7 |
| 20260506211516 | 10 | 113 | 1.6 | 3.2 | 0.00 | 2.26 | 1.70 | 80 | 1009.8 |
| 20260506211016 | 10 | 0 | 1.6 | 4.8 | 0.00 | 2.26 | 1.70 | 80 | 1009.8 |
| 20260506210516 | 10 | 203 | 1.6 | 6.4 | 0.00 | 2.26 | 1.70 | 80 | 1009.8 |
| 20260506210016 | 10 | 135 | 1.6 | 4.8 | 0.00 | 2.26 | 1.70 | 80 | 1009.9 |
| 20260506205516 | 10 | 248 | 1.6 | 4.8 | 0.00 | 2.26 | 1.70 | 80 | 1009.8 |
| 20260506205016 | 10 | 248 | 1.6 | 6.4 | 0.00 | 2.26 | 1.70 | 80 | 1009.9 |
| 20260506204516 | 10 | 180 | 1.6 | 3.2 | 0.00 | 2.26 | 1.70 | 81 | 1009.8 |
| 20260506204016 | 10 | 315 | 1.6 | 4.8 | 0.00 | 2.26 | 1.70 | 81 | 1009.7 |
| 20260506203516 | 10 | 68 | 1.6 | 3.2 | 0.00 | 2.26 | 1.70 | 81 | 1009.8 |
| 20260506203016 | 10 | 90 | 3.2 | 4.8 | 0.00 | 2.26 | 1.70 | 81 | 1009.7 |
| 20260506202516 | 10 | 45 | 1.6 | 4.8 | 0.00 | 2.26 | 1.70 | 81 | 1009.9 |
| 20260506202016 | 9 | 45 | 1.6 | 4.8 | 0.00 | 2.26 | 1.70 | 81 | 1009.8 |
| 20260506201516 | 9 | 90 | 1.6 | 4.8 | 0.00 | 2.26 | 1.70 | 81 | 1009.7 |
| 20260506201016 | 9 | 68 | 3.2 | 6.4 | 0.00 | 2.26 | 1.70 | 81 | 1009.7 |
| 20260506200536 | 9 | 68 | 1.6 | 4.8 | 0.00 | 2.26 | 1.70 | 81 | 1009.6 |
| 20260506200016 | 9 | 180 | 1.6 | 4.8 | 0.00 | 2.26 | 1.70 | 82 | 1009.8 |
| 20260506195516 | 9 | 0 | 1.6 | 3.2 | 0.00 | 2.26 | 1.70 | 82 | 1009.9 |
| 20260506195016 | 9 | 0 | 3.2 | 8.0 | 0.00 | 2.26 | 1.70 | 82 | 1009.9 |
| 20260506194516 | 9 | 0 | 3.2 | 6.4 | 0.00 | 2.26 | 1.70 | 82 | 1009.8 |
| 20260506194016 | 9 | 315 | 3.2 | 6.4 | 0.00 | 2.26 | 1.70 | 83 | 1009.7 |
| 20260506193536 | 8 | 23 | 1.6 | 3.2 | 0.00 | 2.26 | 1.70 | 83 | 1009.8 |
| 20260506193016 | 8 | 0 | 3.2 | 11.3 | 0.00 | 2.26 | 1.70 | 83 | 1009.7 |
| 20260506192556 | 8 | 68 | 1.6 | 4.8 | 0.00 | 2.26 | 1.70 | 83 | 1009.7 |
| 20260506192016 | 8 | 23 | 1.6 | 3.2 | 0.00 | 2.26 | 1.70 | 83 | 1009.6 |
| 20260506191516 | 8 | 338 | 1.6 | 6.4 | 0.00 | 2.26 | 1.70 | 84 | 1009.5 |
| 20260506191036 | 8 | 68 | 4.8 | 9.7 | 0.00 | 2.26 | 1.70 | 84 | 1009.6 |
| 20260506190516 | 8 | 0 | 3.2 | 6.4 | 0.00 | 2.26 | 1.70 | 85 | 1009.7 |
| 20260506190035 | 8 | 0 | 1.6 | 4.8 | 0.00 | 2.26 | 1.70 | 85 | 1009.8 |
| 20260506185516 | 8 | 0 | 1.6 | 4.8 | 0.00 | 2.26 | 1.70 | 85 | 1009.7 |
| 20260506185016 | 8 | 68 | 3.2 | 9.7 | 0.00 | 2.26 | 1.70 | 85 | 1009.8 |
| 20260506184516 | 8 | 338 | 3.2 | 8.0 | 0.00 | 2.26 | 1.70 | 86 | 1009.9 |
| 20260506184056 | 8 | 0 | 3.2 | 8.0 | 0.00 | 2.26 | 1.70 | 86 | 1009.7 |
| 20260506183536 | 8 | 68 | 4.8 | 12.9 | 0.00 | 2.26 | 1.70 | 86 | 1009.8 |
| 20260506183016 | 8 | 68 | 3.2 | 6.4 | 0.00 | 2.26 | 1.70 | 86 | 1009.7 |
| 20260506182536 | 8 | 23 | 3.2 | 6.4 | 0.00 | 2.26 | 1.70 | 87 | 1009.7 |
| 20260506182036 | 8 | 338 | 4.8 | 12.9 | 0.00 | 2.26 | 1.70 | 87 | 1009.8 |
| 20260506181516 | 8 | 0 | 3.2 | 8.0 | 0.00 | 2.26 | 1.70 | 87 | 1009.7 |
| 20260506181036 | 8 | 0 | 3.2 | 8.0 | 0.00 | 2.26 | 1.70 | 87 | 1009.8 |
| 20260506180516 | 8 | 338 | 3.2 | 6.4 | 0.00 | 2.26 | 1.70 | 87 | 1009.9 |
| 20260506180016 | 8 | 0 | 3.2 | 9.7 | 0.00 | 2.26 | 1.70 | 88 | 1009.8 |
| 20260506175516 | 8 | 0 | 3.2 | 9.7 | 0.00 | 2.26 | 1.70 | 88 | 1010.0 |
| 20260506175016 | 8 | 338 | 3.2 | 8.0 | 0.00 | 2.26 | 1.70 | 88 | 1009.9 |
| 20260506174516 | 8 | 0 | 4.8 | 12.9 | 0.00 | 2.26 | 1.70 | 89 | 1009.8 |
| 20260506174016 | 8 | 0 | 3.2 | 8.0 | 0.00 | 2.26 | 1.70 | 88 | 1009.6 |
| 20260506173536 | 8 | 338 | 4.8 | 9.7 | 0.00 | 2.26 | 1.70 | 89 | 1009.4 |
| 20260506173016 | 8 | 338 | 4.8 | 11.3 | 0.00 | 2.26 | 1.70 | 89 | 1009.4 |
| 20260506172516 | 8 | 338 | 3.2 | 8.0 | 0.00 | 2.26 | 1.70 | 89 | 1009.4 |
| 20260506172016 | 8 | 0 | 3.2 | 8.0 | 0.00 | 2.26 | 1.70 | 89 | 1009.4 |
| 20260506171516 | 8 | 0 | 3.2 | 6.4 | 0.00 | 2.26 | 1.70 | 90 | 1009.2 |
| 20260506171036 | 8 | 68 | 1.6 | 4.8 | 0.00 | 2.26 | 1.70 | 90 | 1009.0 |
| 20260506170516 | 8 | 338 | 3.2 | 9.7 | 0.00 | 2.26 | 1.70 | 90 | 1009.0 |
| 20260506170015 | 8 | 45 | 3.2 | 6.4 | 0.00 | 2.26 | 1.70 | 90 | 1009.0 |
| 20260506165516 | 8 | 338 | 3.2 | 9.7 | 0.00 | 2.26 | 1.70 | 90 | 1009.0 |
| 20260506165015 | 8 | 0 | 3.2 | 6.4 | 0.00 | 2.26 | 1.70 | 91 | 1009.2 |
| 20260506164516 | 8 | 338 | 3.2 | 6.4 | 0.00 | 2.26 | 1.70 | 91 | 1009.2 |
| 20260506164016 | 7 | 338 | 1.6 | 6.4 | 0.00 | 2.26 | 1.70 | 91 | 1009.1 |
| 20260506163518 | 7 | 68 | 1.6 | 3.2 | 0.00 | 2.26 | 1.70 | 91 | 1009.3 |
| 20260506163018 | 8 | 68 | 3.2 | 8.0 | 0.00 | 2.26 | 1.70 | 91 | 1009.1 |
| 20260506162518 | 8 | 45 | 3.2 | 8.0 | 0.00 | 2.26 | 1.70 | 92 | 1009.0 |
| 20260506162018 | 8 | 0 | 1.6 | 4.8 | 0.00 | 2.26 | 1.70 | 92 | 1009.0 |
| 20260506161538 | 8 | 0 | 4.8 | 12.9 | 0.00 | 2.26 | 1.70 | 92 | 1008.9 |
| 20260506161018 | 8 | 315 | 4.8 | 12.9 | 0.00 | 2.26 | 1.70 | 92 | 1009.1 |
| 20260506160518 | 7 | 338 | 3.2 | 12.9 | 0.00 | 2.26 | 1.70 | 92 | 1009.0 |
| 20260506160018 | 7 | 68 | 3.2 | 8.0 | 0.00 | 2.26 | 1.70 | 92 | 1009.0 |
| 20260506155518 | 7 | 45 | 3.2 | 8.0 | 0.00 | 2.26 | 1.70 | 93 | 1009.1 |
| 20260506155038 | 7 | 0 | 1.6 | 4.8 | 0.00 | 2.26 | 1.70 | 93 | 1009.2 |
| 20260506154517 | 7 | 23 | 3.2 | 6.4 | 0.00 | 2.26 | 1.70 | 93 | 1009.2 |
| 20260506154018 | 7 | 338 | 1.6 | 8.0 | 0.00 | 2.26 | 1.70 | 93 | 1009.2 |
| 20260506153637 | 7 | 68 | 1.6 | 4.8 | 0.00 | 2.26 | 1.70 | 93 | 1009.1 |
| 20260506153018 | 7 | 23 | 1.6 | 8.0 | 0.00 | 2.26 | 1.70 | 93 | 1009.1 |
| 20260506152518 | 7 | 0 | 3.2 | 8.0 | 0.00 | 2.26 | 1.70 | 94 | 1009.0 |
| 20260506152018 | 7 | 68 | 3.2 | 6.4 | 0.00 | 2.26 | 1.70 | 93 | 1008.9 |
| 20260506151517 | 7 | 0 | 3.2 | 6.4 | 0.00 | 2.26 | 1.70 | 93 | 1008.9 |
| 20260506151018 | 7 | 68 | 1.6 | 6.4 | 0.00 | 2.26 | 1.70 | 93 | 1008.9 |
| 20260506150518 | 7 | 68 | 3.2 | 8.0 | 0.00 | 2.26 | 1.70 | 94 | 1008.9 |
| 20260506150017 | 7 | 338 | 3.2 | 6.4 | 0.00 | 2.26 | 1.70 | 93 | 1009.0 |
| 20260506145518 | 7 | 0 | 1.6 | 4.8 | 0.00 | 2.26 | 1.70 | 93 | 1008.9 |
| 20260506145018 | 7 | 23 | 3.2 | 6.4 | 0.00 | 2.26 | 1.70 | 94 | 1008.9 |
| 20260506144558 | 7 | 23 | 1.6 | 4.8 | 0.00 | 2.26 | 1.70 | 94 | 1008.7 |
| 20260506144016 | 7 | 0.0 | 3.2 | 0.03 | 2.26 | 1.70 | 94 | 1008.7 | |
| 20260506143517 | 7 | 338 | 1.6 | 6.4 | 0.03 | 2.26 | 1.70 | 94 | 1008.6 |
| 20260506143057 | 7 | 68 | 1.6 | 6.4 | 0.03 | 2.26 | 1.70 | 94 | 1008.5 |
| 20260506142518 | 7 | 45 | 1.6 | 3.2 | 0.03 | 2.26 | 1.70 | 94 | 1008.5 |
| 20260506142017 | 7 | 45 | 1.6 | 6.4 | 0.03 | 2.26 | 1.70 | 94 | 1008.6 |
| 20260506141517 | 7 | 68 | 3.2 | 6.4 | 0.03 | 2.26 | 1.70 | 94 | 1008.4 |
| 20260506141017 | 7 | 68 | 3.2 | 8.0 | 0.03 | 2.26 | 1.70 | 94 | 1008.4 |
| 20260506140518 | 7 | 45 | 1.6 | 6.4 | 0.03 | 2.26 | 1.70 | 94 | 1008.3 |
| 20260506140017 | 6 | 90 | 3.2 | 8.0 | 0.03 | 2.26 | 1.70 | 94 | 1008.3 |
| 20260506135517 | 6 | 0.0 | 3.2 | 0.05 | 2.26 | 1.70 | 94 | 1008.2 | |
| 20260506135017 | 6 | 68 | 1.6 | 4.8 | 0.05 | 2.26 | 1.70 | 94 | 1008.4 |
| 20260506134517 | 6 | 68 | 3.2 | 8.0 | 0.05 | 2.26 | 1.70 | 94 | 1008.4 |
| 20260506134017 | 6 | 68 | 3.2 | 8.0 | 0.03 | 2.24 | 1.68 | 94 | 1008.6 |
| 20260506133517 | 6 | 68 | 3.2 | 6.4 | 0.03 | 2.24 | 1.68 | 94 | 1008.5 |
| 20260506133017 | 6 | 45 | 3.2 | 6.4 | 0.03 | 2.24 | 1.68 | 94 | 1008.4 |
| 20260506132517 | 6 | 90 | 3.2 | 8.0 | 0.03 | 2.24 | 1.68 | 94 | 1008.4 |
| 20260506132037 | 6 | 68 | 3.2 | 14.5 | 0.03 | 2.24 | 1.68 | 94 | 1008.3 |
| 20260506131537 | 6 | 68 | 3.2 | 8.0 | 0.05 | 2.24 | 1.68 | 94 | 1008.3 |
| 20260506131018 | 6 | 90 | 4.8 | 9.7 | 0.05 | 2.24 | 1.68 | 94 | 1008.3 |
| 20260506130517 | 6 | 90 | 4.8 | 9.7 | 0.05 | 2.24 | 1.68 | 94 | 1008.1 |
| 20260506130017 | 6 | 45 | 4.8 | 12.9 | 0.05 | 2.24 | 1.68 | 94 | 1008.2 |
| 20260506125517 | 6 | 45 | 4.8 | 11.3 | 0.05 | 2.21 | 1.65 | 94 | 1008.2 |
| 20260506125017 | 6 | 90 | 4.8 | 8.0 | 0.05 | 2.21 | 1.65 | 94 | 1008.2 |
| 20260506124517 | 6 | 68 | 4.8 | 8.0 | 0.08 | 2.21 | 1.65 | 94 | 1008.2 |
| 20260506124017 | 6 | 68 | 4.8 | 12.9 | 0.08 | 2.21 | 1.65 | 94 | 1008.1 |
| 20260506123517 | 6 | 68 | 1.6 | 6.4 | 0.08 | 2.21 | 1.65 | 94 | 1008.4 |
| 20260506123017 | 6 | 45 | 1.6 | 6.4 | 0.08 | 2.21 | 1.65 | 94 | 1008.4 |
| 20260506122517 | 6 | 45 | 3.2 | 8.0 | 0.08 | 2.21 | 1.65 | 94 | 1008.4 |
| 20260506122017 | 6 | 45 | 3.2 | 8.0 | 0.08 | 2.21 | 1.65 | 94 | 1008.4 |
| 20260506121517 | 6 | 45 | 3.2 | 6.4 | 0.08 | 2.18 | 1.63 | 94 | 1008.1 |
| 20260506121037 | 6 | 68 | 3.2 | 6.4 | 0.08 | 2.18 | 1.63 | 94 | 1008.4 |
| 20260506120517 | 6 | 68 | 3.2 | 6.4 | 0.08 | 2.18 | 1.63 | 94 | 1008.3 |
| 20260506120017 | 6 | 68 | 1.6 | 4.8 | 0.08 | 2.18 | 1.63 | 94 | 1008.3 |
| 20260506115517 | 6 | 68 | 4.8 | 8.0 | 0.05 | 2.16 | 1.60 | 94 | 1008.5 |
| 20260506115037 | 6 | 68 | 3.2 | 8.0 | 0.05 | 2.16 | 1.60 | 94 | 1008.3 |
| 20260506114517 | 6 | 68 | 4.8 | 14.5 | 0.05 | 2.13 | 1.57 | 94 | 1008.5 |
| 20260506114037 | 6 | 45 | 3.2 | 11.3 | 0.05 | 2.13 | 1.57 | 94 | 1008.4 |
| 20260506113517 | 6 | 68 | 4.8 | 12.9 | 0.05 | 2.13 | 1.57 | 94 | 1008.2 |
| 20260506113017 | 6 | 45 | 4.8 | 12.9 | 0.08 | 2.13 | 1.57 | 94 | 1008.1 |
| 20260506112557 | 6 | 68 | 4.8 | 14.5 | 0.10 | 2.13 | 1.57 | 94 | 1008.0 |
| 20260506112017 | 6 | 68 | 4.8 | 11.3 | 0.10 | 2.13 | 1.57 | 94 | 1008.0 |
| 20260506111517 | 6 | 90 | 6.4 | 16.1 | 0.08 | 2.11 | 1.55 | 94 | 1007.9 |
| 20260506111017 | 6 | 90 | 4.8 | 14.5 | 0.10 | 2.11 | 1.55 | 94 | 1007.9 |
| 20260506110517 | 6 | 68 | 6.4 | 14.5 | 0.13 | 2.11 | 1.55 | 94 | 1008.0 |
| 20260506110017 | 6 | 90 | 6.4 | 14.5 | 0.13 | 2.11 | 1.55 | 94 | 1007.9 |
| 20260506105517 | 6 | 68 | 6.4 | 14.5 | 0.13 | 2.11 | 1.55 | 94 | 1007.9 |
| 20260506105037 | 6 | 68 | 6.4 | 12.9 | 0.15 | 2.11 | 1.55 | 94 | 1007.9 |
| 20260506104517 | 6 | 68 | 6.4 | 12.9 | 0.15 | 2.08 | 1.52 | 94 | 1008.2 |
| 20260506104037 | 6 | 68 | 6.4 | 12.9 | 0.18 | 2.08 | 1.52 | 94 | 1008.2 |
| 20260506103517 | 6 | 68 | 1.6 | 6.4 | 0.20 | 2.08 | 1.52 | 94 | 1008.3 |
| 20260506103037 | 6 | 45 | 3.2 | 9.7 | 0.18 | 2.06 | 1.50 | 94 | 1008.4 |
| 20260506102517 | 6 | 68 | 3.2 | 8.0 | 0.15 | 2.03 | 1.47 | 94 | 1008.5 |
| 20260506102017 | 7 | 68 | 3.2 | 11.3 | 0.18 | 2.03 | 1.47 | 94 | 1008.3 |
| 20260506101517 | 7 | 68 | 4.8 | 14.5 | 0.20 | 2.03 | 1.47 | 94 | 1008.4 |
| 20260506101017 | 7 | 68 | 3.2 | 11.3 | 0.18 | 2.01 | 1.45 | 94 | 1008.5 |
| 20260506100517 | 7 | 338 | 1.6 | 4.8 | 0.18 | 1.98 | 1.42 | 94 | 1008.7 |
| 20260506100037 | 7 | 0 | 3.2 | 6.4 | 0.18 | 1.98 | 1.42 | 94 | 1008.7 |
| 20260506095517 | 7 | 338 | 3.2 | 8.0 | 0.18 | 1.98 | 1.42 | 94 | 1008.4 |
| 20260506095017 | 7 | 23 | 3.2 | 8.0 | 0.18 | 1.96 | 1.40 | 94 | 1008.3 |
| 20260506094517 | 7 | 0.0 | 4.8 | 0.15 | 1.93 | 1.37 | 94 | 1008.5 | |
| 20260506094017 | 7 | 0.0 | 4.8 | 0.13 | 1.91 | 1.35 | 94 | 1008.5 | |
| 20260506093517 | 7 | 45 | 3.2 | 8.0 | 0.13 | 1.88 | 1.32 | 94 | 1008.4 |
| 20260506093017 | 7 | 68 | 3.2 | 6.4 | 0.13 | 1.88 | 1.32 | 94 | 1008.4 |
| 20260506092517 | 7 | 68 | 3.2 | 6.4 | 0.15 | 1.88 | 1.32 | 94 | 1008.3 |
| 20260506092017 | 7 | 45 | 3.2 | 8.0 | 0.13 | 1.85 | 1.30 | 94 | 1008.4 |
| 20260506091517 | 7 | 68 | 3.2 | 8.0 | 0.10 | 1.83 | 1.27 | 94 | 1008.3 |
| 20260506091017 | 7 | 68 | 4.8 | 9.7 | 0.13 | 1.83 | 1.27 | 94 | 1008.2 |
| 20260506090517 | 7 | 68 | 3.2 | 12.9 | 0.13 | 1.80 | 1.24 | 94 | 1008.0 |
| 20260506090016 | 7 | 68 | 6.4 | 14.5 | 0.13 | 1.80 | 1.24 | 94 | 1007.9 |
| 20260506085517 | 7 | 68 | 6.4 | 14.5 | 0.18 | 1.80 | 1.24 | 94 | 1008.0 |
| 20260506085017 | 7 | 68 | 3.2 | 12.9 | 0.18 | 1.78 | 1.22 | 94 | 1008.2 |
| 20260506084517 | 7 | 68 | 4.8 | 12.9 | 0.20 | 1.78 | 1.22 | 94 | 1008.3 |
| 20260506084017 | 7 | 68 | 8.0 | 17.7 | 0.23 | 1.78 | 1.22 | 94 | 1008.3 |
| 20260506083517 | 7 | 45 | 3.2 | 9.7 | 0.23 | 1.75 | 1.19 | 94 | 1008.6 |
| 20260506083017 | 7 | 45 | 1.6 | 6.4 | 0.25 | 1.75 | 1.19 | 94 | 1008.7 |
| 20260506082517 | 7 | 45 | 3.2 | 6.4 | 0.25 | 1.73 | 1.17 | 94 | 1008.7 |
| 20260506082017 | 7 | 68 | 3.2 | 6.4 | 0.28 | 1.73 | 1.17 | 94 | 1008.5 |
| 20260506081537 | 7 | 45 | 4.8 | 11.3 | 0.30 | 1.73 | 1.17 | 94 | 1008.3 |
| 20260506081017 | 7 | 68 | 8.0 | 17.7 | 0.30 | 1.70 | 1.14 | 94 | 1008.1 |
| 20260506080517 | 7 | 68 | 6.4 | 11.3 | 0.30 | 1.68 | 1.12 | 94 | 1008.3 |
| 20260506073037 | 7 | 45 | 3.2 | 12.9 | 0.36 | 1.50 | 0.94 | 94 | 1008.7 |
| 20260506072517 | 7 | 23 | 3.2 | 9.7 | 0.36 | 1.47 | 0.91 | 94 | 1008.7 |
| 20260506072017 | 8 | 0 | 3.2 | 9.7 | 0.36 | 1.45 | 0.89 | 94 | 1008.6 |
| 20260506071557 | 8 | 68 | 3.2 | 11.3 | 0.38 | 1.42 | 0.86 | 94 | 1008.4 |
| 20260506071037 | 8 | 45 | 3.2 | 9.7 | 0.38 | 1.40 | 0.84 | 94 | 1008.2 |
| 20260506070517 | 8 | 23 | 3.2 | 6.4 | 0.41 | 1.37 | 0.81 | 94 | 1008.3 |